Theta_e
290 291 289 288 288 290 291 294 294 294 297 293 292 292 291 291 290 290 290 289 289 289 289 288 288 288 288 287 287 286 286 285 286 286 286 286 286 286 286 286 286 286 286 286
289 288 286 288 290 291 293 297 297 299 297 293 293 292 291 290 289 289 289 288 288 288 288 288 288 288 288 287 287 286 286 285 285 285 285 285 286 286 285 285 285 285 285 285
287 288 288 289 288 292 291 291 292 300 297 294 294 294 292 291 289 288 288 288 288 288 288 287 288 288 288 288 287 286 286 286 286 285 285 285 285 285 285 285 285 285 285 285
287 287 288 288 288 289 294 290 293 299 297 299 296 295 295 291 289 288 288 287 287 287 287 287 287 288 287 288 288 287 286 286 286 286 286 285 285 285 285 285 285 285 285 284
288 287 287 287 288 289 293 291 293 297 296 293 293 297 295 290 290 288 287 288 287 286 286 287 287 287 287 287 288 287 286 286 286 286 286 285 285 285 284 284 284 284 285 284
288 287 287 287 287 289 290 293 292 291 293 287 289 290 291 292 292 289 287 287 287 286 286 286 287 287 287 287 287 287 286 286 286 286 286 285 285 285 284 284 284 284 284 284
289 287 287 286 288 289 289 291 283 288 285 290 288 288 291 291 291 288 287 286 286 285 284 284 285 286 286 287 287 287 287 286 286 286 286 286 285 285 285 285 284 284 284 284
286 289 287 287 287 288 289 286 287 285 288 287 285 289 292 292 289 286 286 286 286 284 284 284 285 285 286 287 287 286 287 287 286 286 286 286 286 285 285 285 284 284 283 283
284 288 287 288 287 286 286 288 285 275 267 280 286 286 286 289 287 286 285 285 284 283 283 284 285 286 286 286 287 286 286 287 286 286 286 286 286 286 285 285 285 284 284 283
284 286 287 287 287 287 288 286 285 279 282 283 286 284 287 291 289 286 285 284 283 283 283 284 285 286 286 286 287 287 286 287 286 286 286 286 286 286 285 285 285 285 284 284
283 283 286 287 286 285 285 286 283 280 281 282 283 289 282 287 290 289 286 285 284 283 283 284 285 286 286 286 287 287 287 286 286 286 286 286 286 286 286 285 285 284 284 283
285 279 282 287 285 284 285 284 283 283 281 280 283 285 287 287 287 288 288 288 284 283 283 284 285 286 286 286 287 287 287 286 286 286 286 286 286 286 285 285 285 284 283 283
285 281 279 285 284 285 285 285 283 278 277 279 282 287 284 284 286 286 285 285 284 284 283 284 285 286 286 287 287 287 287 287 286 286 286 286 286 285 285 285 284 284 283 283
285 280 283 287 285 281 284 284 280 278 277 281 283 285 285 284 285 285 284 284 283 283 283 283 284 285 286 287 287 287 287 287 286 286 286 285 285 285 285 284 284 283 282 281
281 279 279 278 281 282 284 286 283 281 281 283 284 283 286 285 284 284 284 285 285 285 285 284 284 285 286 286 287 287 287 287 286 285 285 285 285 285 284 283 282 281 280 279
283 277 277 277 278 281 284 285 285 284 284 284 285 285 287 287 285 284 285 285 286 285 285 285 285 285 285 286 287 287 287 286 285 285 285 285 284 283 283 282 280 279 278 277
278 277 274 278 277 275 282 282 284 285 284 285 284 286 285 285 284 285 285 285 285 285 285 285 285 285 286 286 286 286 286 285 285 285 284 284 283 282 281 279 277 277 276 276
276 274 270 275 272 281 287 283 283 285 285 284 285 285 284 285 284 284 283 283 285 285 285 285 285 286 286 286 285 285 285 285 284 284 283 283 281 279 277 277 276 275 275 274
281 280 272 279 272 281 286 281 282 283 284 284 285 286 285 285 283 282 283 283 283 283 284 285 286 286 286 286 286 285 285 284 283 283 282 280 277 276 276 275 274 274 273 273
281 279 281 267 276 281 285 283 281 283 283 283 284 284 284 282 283 283 284 285 285 286 286 286 287 286 285 286 285 284 284 283 282 281 279 277 275 274 274 273 273 272 272 272
283 283 284 276 273 279 281 282 281 283 288 285 283 284 283 282 284 284 285 284 285 286 286 286 286 285 286 285 284 283 282 281 280 278 277 275 274 273 273 272 272 271 271 270
284 284 283 278 276 285 281 281 284 286 286 285 283 283 283 283 283 283 282 283 284 284 285 286 284 285 285 284 283 282 280 279 277 276 275 274 273 272 272 270 270 269 269 269
286 286 285 285 284 284 283 284 284 284 285 285 284 283 282 282 283 283 283 283 283 284 285 286 285 285 284 283 282 280 278 277 275 274 273 272 272 271 270 269 269 268 268 268
280 282 284 285 285 284 283 283 283 283 283 284 283 283 282 282 284 283 283 284 284 285 285 286 285 284 282 281 279 278 276 274 273 273 272 271 270 269 268 267 267 267 266 267
282 283 285 285 285 285 284 283 284 285 284 284 284 283 283 283 283 284 284 284 284 284 285 285 284 283 281 279 277 275 274 273 272 271 270 269 268 267 266 266 266 266 267 267
283 285 287 290 288 287 287 286 285 284 285 284 284 284 284 284 284 285 284 285 284 284 285 283 282 280 278 276 275 273 272 271 270 269 267 266 265 265 264 264 264 267 266 268
Wind_Speed
9 14 6 6 5 3 7 9 8 3 2 8 8 9 5 4 5 7 6 6 7 8 10 14 18 22 27 30 33 34 35 36 38 39 38 30 33 31 37 37 37 37 37 36
8 10 6 4 5 8 7 10 4 2 4 6 4 4 2 2 2 3 4 6 6 5 9 15 17 19 22 26 29 31 31 33 34 35 36 28 25 23 30 36 36 36 36 35
9 2 5 3 7 6 6 5 2 4 4 6 4 1 3 1 2 2 3 2 3 4 6 12 18 18 18 21 24 27 28 30 31 32 34 34 22 26 30 37 38 38 36 35
8 5 4 6 6 4 3 3 1 6 3 4 2 3 4 5 4 2 0 2 3 5 8 12 17 19 18 16 18 22 23 27 29 31 32 32 28 21 27 32 36 37 37 35
2 6 6 7 4 3 3 1 3 2 4 4 4 1 3 3 5 5 5 3 3 4 7 12 16 19 19 13 14 17 18 22 26 28 29 29 29 29 31 33 36 38 39 36
4 1 4 2 2 3 3 3 5 3 2 3 3 3 3 4 5 4 4 6 4 4 8 14 16 17 16 13 9 13 14 17 22 25 27 27 27 28 31 34 35 37 38 38
3 4 4 4 3 3 4 4 3 4 4 3 2 2 6 5 6 6 9 8 6 5 6 13 15 17 17 15 9 12 12 16 21 24 26 26 26 28 30 32 32 34 34 37
3 4 6 8 3 1 4 4 4 4 1 4 4 4 3 2 3 5 5 5 5 6 7 14 18 18 18 15 9 12 13 16 20 24 25 25 25 27 29 31 33 34 34 35
4 1 2 3 3 1 3 4 3 7 1 3 2 5 3 2 4 5 6 5 7 7 6 14 20 19 18 16 11 12 14 15 19 24 25 23 23 24 26 30 33 34 35 36
3 4 1 3 1 6 3 5 3 3 2 3 4 5 4 5 8 8 8 8 8 6 8 15 18 19 19 18 12 13 15 14 18 23 24 23 23 25 26 29 32 33 34 37
4 2 2 2 4 2 2 2 6 5 3 4 1 6 6 7 8 8 9 9 8 7 8 13 18 18 18 17 13 14 17 16 19 23 24 22 23 25 27 30 32 32 34 37
1 4 2 1 2 1 1 4 3 4 4 1 2 7 4 7 5 6 8 7 6 7 10 16 18 17 18 17 16 18 19 20 21 23 25 24 25 26 28 30 31 32 34 37
6 1 3 7 4 3 3 4 4 4 3 5 5 6 2 4 4 6 7 7 6 6 9 17 18 17 18 18 19 21 23 25 26 25 27 27 27 28 32 32 32 34 36 39
5 2 6 6 5 4 3 3 4 5 4 4 7 7 8 7 8 7 8 8 8 9 9 12 17 22 20 20 20 23 24 26 27 26 28 28 27 30 32 32 34 36 37 38
4 4 2 2 3 2 4 4 9 9 6 7 3 8 14 5 7 9 10 10 8 9 8 8 13 21 26 24 23 24 25 27 24 25 28 27 28 30 30 32 35 36 36 35
2 2 2 4 3 2 7 11 14 14 10 14 12 19 23 21 9 9 12 8 8 10 10 11 17 21 24 28 28 24 26 26 24 27 27 26 27 28 30 33 34 35 35 32
4 6 3 5 4 6 8 9 17 8 7 12 9 14 2 6 7 8 9 8 10 11 11 10 18 22 25 29 29 24 26 24 24 24 24 24 25 27 31 33 33 31 33 32
5 5 3 3 3 1 5 2 7 11 7 15 7 13 8 11 5 7 8 9 14 12 11 17 21 25 29 27 26 25 26 23 22 21 21 21 24 28 29 31 31 32 31 31
1 5 2 3 3 8 6 6 8 8 8 15 21 18 15 12 2 9 13 13 14 19 25 24 27 29 29 27 25 25 24 21 19 18 19 22 24 25 27 30 32 33 31 31
3 4 3 3 4 7 5 3 4 5 5 6 14 15 13 5 3 5 8 11 16 22 23 28 31 28 29 29 23 22 21 18 16 17 20 22 22 23 26 29 31 31 31 30
4 1 6 4 4 10 10 5 7 5 6 6 11 10 8 6 8 5 6 10 19 25 29 29 28 27 29 24 21 20 16 14 16 18 21 21 20 23 24 28 30 32 32 28
9 10 5 4 2 11 10 6 8 7 4 6 6 7 7 8 9 8 9 13 20 25 30 29 26 27 24 18 16 14 14 15 17 18 19 19 21 22 25 27 30 29 29 26
4 7 6 13 9 0 18 6 17 3 3 4 5 9 9 8 7 10 11 16 20 24 27 29 26 26 21 14 12 13 14 15 17 18 18 20 22 23 25 27 29 26 24 23
5 3 4 1 9 17 11 18 11 6 9 10 9 10 6 10 13 12 12 16 18 23 24 28 25 23 17 13 13 13 13 14 15 17 19 20 22 25 26 26 26 22 22 22
4 11 6 7 9 6 11 14 16 13 11 13 18 14 15 12 14 15 11 18 21 24 28 25 22 19 15 12 12 12 12 12 13 15 17 19 22 26 26 23 22 22 23 23
6 7 7 10 8 10 6 6 10 13 14 13 12 12 18 18 15 20 17 23 24 26 26 22 17 14 12 10 11 11 11 11 12 13 14 17 20 23 22 22 23 28 21 23
Wind_Direction
23 59 32 319 335 76 96 88 92 46 306 59 72 101 96 76 75 71 59 51 43 35 22 30 33 31 32 32 31 31 29 29 27 26 23 21 25 24 24 25 23 21 21 21
52 54 329 290 27 75 70 90 72 109 40 87 121 91 109 78 52 65 62 42 33 12 8 18 17 21 25 25 26 27 30 29 27 25 23 21 20 23 17 17 18 18 18 19
83 297 321 67 38 57 34 86 127 125 104 64 128 156 188 169 130 77 41 20 15 3 354 358 6 9 10 15 19 22 24 26 23 22 19 18 19 19 8 11 9 12 12 14
74 344 32 51 68 357 74 350 130 117 83 143 14 264 253 193 200 188 198 352 336 345 348 349 357 359 358 358 7 14 19 21 21 19 17 15 14 8 1 1 2 4 7 7
62 8 23 46 6 335 88 132 96 92 88 88 346 66 260 139 232 223 228 249 302 316 324 332 343 348 352 344 353 5 11 16 15 14 12 10 8 4 360 360 358 359 358 360
100 58 50 329 310 6 120 91 49 55 73 36 259 123 251 193 205 186 213 226 232 287 332 332 337 344 345 347 340 353 357 4 5 4 5 5 3 360 358 357 356 354 353 353
27 25 343 37 8 46 60 61 359 8 13 209 348 46 245 228 217 193 192 216 233 262 296 315 328 337 341 342 328 340 341 350 357 355 355 357 356 355 354 354 351 349 347 347
101 354 13 339 61 142 48 130 140 193 278 272 334 240 249 244 197 204 196 205 233 271 282 312 328 334 339 337 318 330 330 338 350 351 345 345 348 348 349 349 347 346 344 343
110 77 339 59 31 48 264 49 153 105 75 37 268 282 279 158 215 223 226 242 254 269 291 311 330 339 339 336 315 319 324 327 340 346 340 334 334 336 339 342 342 340 339 339
224 82 39 292 182 34 87 144 61 10 63 314 291 281 243 215 225 228 239 240 251 266 301 308 328 334 336 332 311 310 318 313 327 339 337 331 327 326 329 332 335 335 334 335
138 82 268 12 22 166 22 33 48 106 101 159 264 271 210 208 212 218 234 238 241 255 286 294 314 322 328 327 310 303 309 305 315 332 330 325 323 322 322 324 327 330 330 333
157 138 126 147 167 259 189 189 134 114 258 84 123 273 220 214 215 215 236 231 233 250 272 294 306 311 318 324 313 302 305 298 306 322 326 322 320 320 321 321 322 324 327 329
191 358 25 346 3 360 208 180 115 102 80 205 144 263 238 266 245 233 238 252 262 268 285 291 298 300 303 308 310 305 303 301 305 315 322 320 320 321 323 321 320 322 324 325
98 102 163 193 201 129 177 194 171 127 129 183 231 284 254 236 231 243 248 261 274 271 267 273 282 283 286 294 302 305 302 301 302 310 316 316 318 322 322 319 319 322 323 321
115 180 124 268 259 297 231 183 189 202 180 179 246 222 258 234 219 240 253 266 265 267 266 258 265 280 287 288 294 308 311 305 306 309 313 314 317 320 320 319 320 321 319 317
65 211 92 314 347 306 279 224 220 219 230 255 255 276 269 273 279 272 261 252 258 266 266 270 276 281 282 286 287 298 307 305 305 307 309 313 316 319 320 320 319 318 316 314
119 133 92 267 341 332 296 231 197 187 210 206 198 233 278 267 241 255 262 248 251 258 263 261 268 281 288 295 294 292 304 300 299 303 305 309 314 318 319 320 320 317 315 312
127 98 79 232 360 61 247 181 187 203 232 208 259 256 240 245 244 269 245 247 269 265 262 266 273 290 299 299 297 292 300 294 297 298 303 310 316 318 320 321 320 318 316 311
85 122 77 159 211 301 269 193 170 179 267 203 219 245 253 265 215 279 252 244 241 250 267 279 292 293 297 294 296 300 293 291 293 298 305 313 317 318 322 322 321 321 316 311
71 69 124 91 172 227 240 174 178 146 285 208 188 226 237 137 224 249 256 264 275 280 281 292 296 299 294 294 301 294 286 288 291 301 308 313 317 321 320 322 322 320 315 308
140 190 201 193 245 282 242 156 155 93 240 172 187 214 203 187 222 232 222 255 274 283 287 293 293 293 297 300 297 283 279 281 294 304 309 314 318 321 322 323 324 323 317 308
164 160 192 125 153 276 151 96 182 213 200 178 199 223 218 227 250 256 262 271 277 280 293 297 294 298 305 294 281 272 272 288 298 304 309 315 320 325 327 327 325 320 317 309
216 188 180 193 206 219 190 198 214 137 187 219 210 234 227 240 246 259 268 269 270 277 285 296 293 297 295 284 262 263 277 295 303 309 314 319 323 328 331 328 324 316 315 310
242 160 233 94 209 229 216 244 252 239 229 244 241 250 223 240 262 262 263 267 271 276 278 290 288 282 275 257 253 268 285 297 302 309 316 323 326 328 330 330 327 312 311 311
188 148 205 260 273 267 239 230 242 248 242 250 253 242 246 246 256 255 265 267 266 267 277 280 277 270 253 238 254 274 291 297 304 311 318 322 324 328 328 325 321 311 306 306
192 183 190 244 223 216 219 216 226 231 242 246 247 257 246 237 250 259 255 259 262 268 281 277 266 244 235 247 266 279 288 297 310 317 319 320 324 326 325 322 317 326 314 312